Tracking 29892 objects as of 21-Nov-2024
HD Live streaming from Space Station
objects crossing your sky now

STARLINK-30187

Track STARLINK-30187 now!
10-day predictions
STARLINK-30187 is classified as:


NORAD ID: 57473
Int'l Code: 2023-107S
Perigee: 565.5 km
Apogee: 566.9 km
Inclination: 43.0 °
Period: 95.8 minutes
Semi major axis: 6937 km
RCS: Unknown
Launch date: July 28, 2023
Source: (TBD)
Launch site: AIR FORCE EASTERN TEST RANGE (AFETR)
Your satellite tracking list
Your tracking list is empty




NASA's NSSDC Master Catalog

Two Line Element Set (TLE):
1 57473U 23107S   24325.54844970  .00001047  00000-0  92538-4 0  9999
2 57473  43.0027  35.0172 0000991 262.8623  97.2106 15.02546182 73784
Source of the keplerian elements: AFSPC